DW8832 Ted Stevens Lena Point CWOPAK US current weather conditions

sailwx.info

Wind from 112

Air temperature 1.1° C
Dewpoint -2.1° C

Last reported at 2020-Apr-07 14:59 UTC.
Time now 2020-Apr-07 15:27 UTC

Location: N 58°23' W 134°46'.
View on Google Maps.

See reports from other nearby stations

  
Tides and Currents Weather Stations Pressure Air Temp Water Temp Dewpoint Dewpoint Depression Visibility Wind Speed Wind Dir Waves Ship Positions
date/time (UTC)wind fromknots sea level pressurealtimeterstation pressurevisibilityair tempwater tempwave heightnotes
2020-Apr-07 14:59 112 1.1
2020-Apr-07 14:49 090 0.6
2020-Apr-07 14:39 157 0.6
2020-Apr-07 14:29 090 0.6
2020-Apr-07 14:19 135 0 gusting 0 0.6
2020-Apr-07 14:08 157 0 gusting 0 0.6
2020-Apr-07 13:58 157 0 gusting 2 0.6
2020-Apr-07 13:49 157 0.6
2020-Apr-07 13:38 157 0 gusting 0 0.6
2020-Apr-07 13:28 157 -0.0
2020-Apr-07 13:18 112 0 gusting 0 -0.0
2020-Apr-07 13:07 135 -0.0
2020-Apr-07 12:57 157 -0.0
2020-Apr-07 12:47 157 -0.0
2020-Apr-07 12:37 157 -0.0
2020-Apr-07 12:27 157 -0.0
2020-Apr-07 12:16 157 -0.0
2020-Apr-07 12:07 157 0.6
2020-Apr-07 11:57 157 0.6
2020-Apr-07 11:47 157 2 gusting 3 0.6
2020-Apr-07 11:37 180 5 gusting 7 0.6
2020-Apr-07 11:27 135 6 gusting 6 1.1
2020-Apr-07 11:16 202 3 gusting 11 1.1
2020-Apr-07 11:06 157 9 gusting 11 1.7
2020-Apr-07 10:55 180 5 gusting 9 1.7
2020-Apr-07 10:46 202 6 gusting 9 1.7
2020-Apr-07 10:35 180 7 gusting 7 1.7
2020-Apr-07 10:25 157 3 gusting 6 1.7
2020-Apr-07 10:15 202 4 gusting 6 1.7
2020-Apr-07 10:05 157 0 gusting 6 1.7
2020-Apr-07 09:54 180 3 gusting 6 1.7
2020-Apr-07 09:45 202 3 gusting 6 1.7
2020-Apr-07 09:34 202 5 gusting 6 1.7
2020-Apr-07 09:25 202 5 gusting 6 1.7
2020-Apr-07 09:14 180 3 gusting 6 1.7
2020-Apr-07 09:04 202 3 gusting 5 1.7
2020-Apr-07 08:53 225 1.7
2020-Apr-07 08:44 157 4 gusting 5 1.7
2020-Apr-07 08:34 180 2 gusting 5 1.7
2020-Apr-07 08:23 202 2 gusting 5 1.7
2020-Apr-07 08:14 157 2 gusting 5 1.7
2020-Apr-07 08:04 180 3 gusting 6 1.7
2020-Apr-07 07:54 157 3 gusting 7 1.7
2020-Apr-07 07:44 202 7 gusting 7 1.7
2020-Apr-07 07:34 180 6 gusting 6 1.7
2020-Apr-07 07:24 202 5 gusting 5 1.7
2020-Apr-07 07:14 202 4 gusting 6 1.7
2020-Apr-07 07:04 157 4 gusting 6 1.7
2020-Apr-07 06:54 180 6 gusting 6 1.7
2020-Apr-07 06:44 157 5 gusting 6 1.7
2020-Apr-07 06:35 202 3 gusting 7 1.7
2020-Apr-07 06:24 180 7 gusting 7 1.7
2020-Apr-07 06:14 157 6 gusting 6 1.7
2020-Apr-07 06:04 157 5 gusting 7 1.7
2020-Apr-07 05:54 180 6 gusting 7 1.7
2020-Apr-07 05:43 202 6 gusting 6 1.7
2020-Apr-07 05:33 202 3 gusting 7 1.7
2020-Apr-07 05:23 180 7 gusting 7 1.7
2020-Apr-07 05:13 157 3 gusting 7 1.7
2020-Apr-07 05:03 157 3 gusting 5 1.7
2020-Apr-07 04:52 157 5 gusting 7 1.7
2020-Apr-07 04:42 202 6 gusting 7 1.7
2020-Apr-07 04:32 202 6 gusting 6 1.7
2020-Apr-07 04:22 202 5 gusting 7 1.7
2020-Apr-07 04:12 180 6 gusting 7 1.7
2020-Apr-07 04:01 180 4 gusting 6 1.7
2020-Apr-07 03:51 180 6 gusting 6 1.7
2020-Apr-07 03:41 202 4 gusting 7 1.7
2020-Apr-07 03:31 202 6 gusting 11 2.2
2020-Apr-07 03:21 202 11 gusting 11 2.2
2020-Apr-07 03:11 202 9 gusting 11 2.2
2020-Apr-07 03:01 202 9 gusting 9 2.8
2020-Apr-07 02:52 202 6 gusting 7 2.8
2020-Apr-07 02:42 202 7 gusting 10 2.8
2020-Apr-07 02:32 180 8 gusting 12 2.8
2020-Apr-07 02:22 180 12 gusting 12 2.8
2020-Apr-07 02:12 202 7 gusting 12 2.8
2020-Apr-07 02:02 202 7 gusting 12 2.8
2020-Apr-07 01:51 202 9 gusting 12 3.3
2020-Apr-07 01:42 202 12 gusting 13 3.3
2020-Apr-07 01:32 202 13 gusting 13 3.3
2020-Apr-07 01:22 202 6 gusting 8 3.9
2020-Apr-07 01:12 202 8 gusting 8 3.9
2020-Apr-07 01:02 202 7 gusting 12 4.4
2020-Apr-07 00:52 202 12 gusting 12 4.4
2020-Apr-07 00:42 202 8 gusting 12 4.4
2020-Apr-07 00:32 202 11 gusting 12 5.0
2020-Apr-07 00:22 202 7 gusting 8 5.0
2020-Apr-07 00:12 202 5 gusting 9 4.4
2020-Apr-07 00:02 202 7 gusting 9 4.4
2020-Apr-06 23:52 202 6 gusting 7 3.9
2020-Apr-06 23:41 225 3 gusting 11 3.3
2020-Apr-06 23:31 202 5 gusting 11 3.3
2020-Apr-06 23:22 202 7 gusting 12 3.9
2020-Apr-06 23:11 202 6 gusting 12 4.4
2020-Apr-06 23:02 202 6 gusting 11 4.4
2020-Apr-06 22:51 180 11 gusting 15 4.4
2020-Apr-06 22:41 180 10 gusting 15 5.0
2020-Apr-06 22:31 202 9 gusting 11 4.4
2020-Apr-06 22:21 180 9 gusting 11 5.0
2020-Apr-06 22:11 202 6 gusting 10 5.0
2020-Apr-06 22:00 202 6 gusting 11 5.0
2020-Apr-06 21:50 202 9 gusting 12 5.0
2020-Apr-06 21:40 202 9 gusting 11 5.6
2020-Apr-06 21:29 202 7 gusting 10 5.6
2020-Apr-06 21:19 202 6 gusting 9 6.1
2020-Apr-06 21:09 225 3 gusting 9 6.1
2020-Apr-06 20:59 202 5 gusting 9 6.7
2020-Apr-06 20:49 202 7 gusting 9 6.7
2020-Apr-06 20:39 180 8 gusting 10 6.1
2020-Apr-06 20:29 202 7 gusting 10 5.6
2020-Apr-06 20:19 202 9 gusting 9 5.6
2020-Apr-06 20:09 202 6 gusting 7 5.6
2020-Apr-06 19:59 180 0 gusting 0 5.0
2020-Apr-06 19:49 202 5.0
2020-Apr-06 19:39 180 2 gusting 5 5.0
2020-Apr-06 19:28 157 3 gusting 3 4.4
2020-Apr-06 19:18 180 2 gusting 6 4.4
2020-Apr-06 19:08 202 5 gusting 6 4.4
2020-Apr-06 18:59 180 1 gusting 1 4.4
2020-Apr-06 18:49 202 1 gusting 2 4.4
2020-Apr-06 18:39 135 4 gusting 5 4.4
2020-Apr-06 18:29 157 4.4
2020-Apr-06 18:19 180 1 gusting 1 4.4
2020-Apr-06 18:09 157 5 gusting 5 4.4
2020-Apr-06 17:58 180 2 gusting 6 3.9
2020-Apr-06 17:49 157 3 gusting 6 3.9
2020-Apr-06 17:39 180 2 gusting 5 3.9
2020-Apr-06 17:29 157 2 gusting 6 3.9
2020-Apr-06 17:19 202 0 gusting 6 3.9
2020-Apr-06 17:09 180 4 gusting 4 3.9
2020-Apr-06 16:59 180 3.9
2020-Apr-06 16:49 157 0 gusting 5 3.9
2020-Apr-06 16:38 180 5 gusting 7 3.9
2020-Apr-06 16:29 180 5 gusting 7 3.9
2020-Apr-06 16:19 180 1 gusting 7 3.9
2020-Apr-06 16:08 180 5 gusting 6 3.3
2020-Apr-06 15:58 157 4 gusting 4 3.3
2020-Apr-06 15:48 157 2 gusting 2 3.3
2020-Apr-06 15:38 157 1 gusting 1 3.3
2020-Apr-06 15:27 180 3.3
2020-Apr-06 15:17 180 6 gusting 7 3.3
2020-Apr-06 15:07 180 2 gusting 7 3.3
2020-Apr-06 14:57 180 2 gusting 6 2.8
2020-Apr-06 14:48 180 6 gusting 6 2.8
2020-Apr-06 14:37 180 3 gusting 3 2.8
2020-Apr-06 14:27 180 0 gusting 3 2.2
2020-Apr-06 14:17 180 2.2
2020-Apr-06 14:07 2.2
2020-Apr-06 13:58 337 0 gusting 0 2.2
2020-Apr-06 13:47 180 2.2
2020-Apr-06 13:37 225 0 gusting 10 2.2
2020-Apr-06 13:28 202 6 gusting 10 2.2
2020-Apr-06 13:17 180 10 gusting 10 2.2
2020-Apr-06 13:07 202 6 gusting 8 2.8
2020-Apr-06 12:57 202 7 gusting 8 3.3
2020-Apr-06 12:47 202 6 gusting 6 3.9
2020-Apr-06 12:37 202 5 gusting 7 4.4
2020-Apr-06 12:26 202 7 gusting 9 4.4
2020-Apr-06 12:16 180 9 gusting 9 4.4
2020-Apr-06 12:05 157 6 gusting 6 4.4
2020-Apr-06 11:55 157 3 gusting 6 4.4
2020-Apr-06 11:45 157 2 gusting 4 4.4
2020-Apr-06 11:35 157 4 gusting 7 4.4
2020-Apr-06 11:25 180 7 gusting 7 4.4
2020-Apr-06 11:15 157 5 gusting 12 4.4
2020-Apr-06 11:05 157 12 gusting 13 4.4
2020-Apr-06 10:54 135 13 gusting 13 4.4
2020-Apr-06 10:45 157 11 gusting 12 4.4
2020-Apr-06 10:35 180 9 gusting 12 4.4
2020-Apr-06 10:25 135 7 gusting 9 4.4
2020-Apr-06 10:15 180 7 gusting 7 4.4
2020-Apr-06 10:05 157 5 gusting 5 4.4
2020-Apr-06 09:55 202 2 gusting 2 3.9
2020-Apr-06 09:45 157 3.9
2020-Apr-06 09:35 135 0 gusting 3 3.9
2020-Apr-06 09:25 135 2 gusting 3 3.9
2020-Apr-06 09:15 135 3 gusting 4 3.9
2020-Apr-06 09:05 157 0 gusting 4 3.9
2020-Apr-06 08:55 157 2 gusting 3 3.9
2020-Apr-06 08:45 157 3 gusting 3 3.9
2020-Apr-06 08:36 135 3.9
2020-Apr-06 08:25 067 0 gusting 2 3.9
2020-Apr-06 08:15 157 1 gusting 2 3.9
2020-Apr-06 08:06 157 3.9
2020-Apr-06 07:56 135 0 gusting 2 3.9
2020-Apr-06 07:45 157 3.9
2020-Apr-06 07:35 135 3.9
2020-Apr-06 07:25 157 0 gusting 6 3.9
2020-Apr-06 07:15 157 1 gusting 2 3.9
2020-Apr-06 07:05 157 0 gusting 2 3.9
2020-Apr-06 06:55 157 2 gusting 2 4.4
2020-Apr-06 06:45 067 0 gusting 3 4.4
2020-Apr-06 06:35 157 4.4
2020-Apr-06 06:25 157 0 gusting 0 4.4
2020-Apr-06 06:14 135 0 gusting 0 4.4
2020-Apr-06 06:04 112 2 gusting 2 4.4
2020-Apr-06 05:54 157 4.4
2020-Apr-06 05:44 112 0 gusting 0 4.4
2020-Apr-06 05:33 315 0 gusting 0 4.4
2020-Apr-06 05:23 315 4.4
2020-Apr-06 05:13 135 4.4
2020-Apr-06 05:03 135 5.0
2020-Apr-06 04:53 157 5.0
2020-Apr-06 04:43 157 5.0
2020-Apr-06 04:33 135 0 gusting 0 5.0
2020-Apr-06 04:22 135 5.0
2020-Apr-06 04:12 157 5.0
2020-Apr-06 04:02 135 5.0
2020-Apr-06 03:52 135 5.0
2020-Apr-06 03:42 157 5.6
2020-Apr-06 03:31 157 5.6
2020-Apr-06 03:22 180 0 gusting 2 5.6
2020-Apr-06 03:11 135 6.1
2020-Apr-06 03:01 157 6.1
2020-Apr-06 02:51 157 6.1
2020-Apr-06 02:41 157 6.1
2020-Apr-06 02:31 157 0 gusting 0 6.1
2020-Apr-06 02:21 157 0 gusting 0 6.1
2020-Apr-06 02:11 157 6.1
2020-Apr-06 02:01 180 6.1
2020-Apr-06 01:51 180 0 gusting 0 6.1
2020-Apr-06 01:41 157 6.1
2020-Apr-06 01:32 157 0 gusting 0 6.1
2020-Apr-06 01:21 157 6.1
2020-Apr-06 01:11 157 1 gusting 1 6.1
2020-Apr-06 01:01 157 0 gusting 0 6.1
2020-Apr-06 00:50 157 1 gusting 2 6.1
2020-Apr-06 00:40 157 6.1
2020-Apr-06 00:31 157 6.7
2020-Apr-06 00:20 157 6.7
2020-Apr-06 00:10 157 6.1
2020-Apr-06 00:01 157 6.1
2020-Apr-05 23:51 157 6.1
2020-Apr-05 23:41 157 0 gusting 0 5.6
2020-Apr-05 23:31 157 0 gusting 0 6.1
2020-Apr-05 23:21 157 0 gusting 0 6.1
2020-Apr-05 23:11 157 6.1
2020-Apr-05 23:01 157 0 gusting 0 6.1
2020-Apr-05 22:51 157 0 gusting 0 6.1
2020-Apr-05 22:41 157 6.1
2020-Apr-05 22:31 157 6.1
2020-Apr-05 22:21 157 0 gusting 2 6.1
2020-Apr-05 22:11 157 2 gusting 2 6.1
2020-Apr-05 22:01 157 6.1
2020-Apr-05 21:51 180 0 gusting 0 6.1
2020-Apr-05 21:40 157 6.1
2020-Apr-05 21:30 180 6.1
2020-Apr-05 21:20 157 0 gusting 2 6.1
2020-Apr-05 21:10 157 1 gusting 2 6.1
2020-Apr-05 21:00 180 2 gusting 2 6.1
2020-Apr-05 20:50 157 2 gusting 3 5.6
2020-Apr-05 20:39 180 2 gusting 3 5.0
2020-Apr-05 20:29 202 1 gusting 3 5.0
2020-Apr-05 20:19 180 2 gusting 2 5.0
2020-Apr-05 20:09 157 1 gusting 3 4.4
2020-Apr-05 19:59 157 1 gusting 2 4.4
2020-Apr-05 19:49 180 0 gusting 2 4.4
2020-Apr-05 19:39 157 2 gusting 2 3.9
2020-Apr-05 19:29 157 0 gusting 2 3.9
2020-Apr-05 19:19 157 0 gusting 2 3.3
2020-Apr-05 19:09 157 0 gusting 2 3.3
2020-Apr-05 18:59 157 2 gusting 2 3.3
2020-Apr-05 18:49 157 2 gusting 2 3.3
2020-Apr-05 18:39 157 2 gusting 2 2.8
2020-Apr-05 18:29 157 2 gusting 2 2.2
2020-Apr-05 18:19 157 1 gusting 2 2.2
2020-Apr-05 18:09 157 0 gusting 2 1.7
2020-Apr-05 17:59 180 2 gusting 2 1.7
2020-Apr-05 17:49 157 2 gusting 2 1.1
2020-Apr-05 17:39 157 0 gusting 2 1.1
2020-Apr-05 17:29 157 1 gusting 2 0.6
2020-Apr-05 17:19 157 0 gusting 2 0.6
2020-Apr-05 17:09 157 2 gusting 2 -0.0
2020-Apr-05 16:59 157 1 gusting 2 -0.0
2020-Apr-05 16:50 157 0 gusting 1 -0.0
2020-Apr-05 16:40 157 0 gusting 0 -0.6
2020-Apr-05 16:30 180 0 gusting 0 -0.6
2020-Apr-05 16:20 180 0 gusting 0 -0.6
2020-Apr-05 16:10 202 -1.1
2020-Apr-05 16:00 337 -1.1
2020-Apr-05 15:50 337 -1.1
2020-Apr-05 15:40 337 -1.7
2020-Apr-05 15:30 337 -1.7
2020-Apr-05 15:21 337 -1.7
2020-Apr-05 15:11 337 -1.7
2020-Apr-05 15:01 337 -1.7